KG5VSR Weather Reports


time (UTC)temp
C
wind
direction
speed
KPH
gust
KPH
rain 1hr
cm
rain 24hr
cm
rain mn
cm
humidity
%
barometer
mb
20260905061557 28 192 0.0 0.0 0.00 0.00 0.00 74 1014.1
20260905054555 29 211 0.0 0.0 0.00 0.00 0.00 72 1013.9
20260905051553 30 202 1.6 1.6 0.00 0.00 0.00 69 1013.7
20260905044549 30 182 1.6 3.2 0.00 0.00 0.00 68 1013.8
20260905041546 31 217 1.6 1.6 0.00 0.00 0.00 66 1013.7
20260905034544 31 241 1.6 1.6 0.00 0.00 0.00 63 1013.7
20260905031543 31 183 0.0 0.0 0.00 0.00 0.00 61 1013.7
20260905024542 32 177 1.6 3.2 0.00 0.00 0.00 59 1013.5
20260905021538 32 286 0.0 0.0 0.00 0.00 0.00 59 1013.1
20260905014534 32 198 0.0 0.0 0.00 0.00 0.00 57 1012.5
20260905011531 33 167 3.2 3.2 0.00 0.00 0.00 54 1012.2
20260905004532 33 203 0.0 1.6 0.00 0.00 0.00 53 1011.8
20260905001526 35 158 8.0 9.7 0.00 0.00 0.00 50 1011.5
20260904234524 35 233 4.8 8.0 0.00 0.00 0.00 49 1011.5
20260904231523 36 200 1.6 1.6 0.00 0.00 0.00 49 1011.4
20260904224522 36 94 4.8 4.8 0.00 0.00 0.00 50 1011.4
20260904221520 37 202 8.0 11.3 0.00 0.00 0.00 50 1011.6
20260904214519 36 32 3.2 4.8 0.00 0.00 0.00 49 1011.7
20260904211515 37 168 22.5 27.4 0.00 0.00 0.00 47 1012.3
20260904204512 36 225 1.6 3.2 0.00 0.00 0.00 49 1012.4
20260904201509 37 192 14.5 20.9 0.00 0.00 0.00 49 1012.7
20260904194509 37 141 11.3 14.5 0.00 0.00 0.00 48 1013.1
20260904191504 36 203 1.6 3.2 0.00 0.00 0.00 50 1013.4
20260904184500 36 162 11.3 14.5 0.00 0.00 0.00 51 1014.0
20260904181500 36 223 3.2 3.2 0.00 0.00 0.00 50 1014.5
20260904174456 35 252 8.0 9.7 0.00 0.00 0.00 54 1014.7
20260904171456 33 194 0.0 1.6 0.00 0.00 0.00 61 1015.2
20260904164454 33 271 1.6 1.6 0.00 0.00 0.00 63 1015.3
20260904161453 32 314 1.6 3.2 0.00 0.00 0.00 69 1015.4
20260904154449 30 197 4.8 4.8 0.00 0.00 0.00 74 1015.5
20260904151444 30 184 1.6 3.2 0.00 0.00 0.00 79 1015.3
20260904144442 28 185 3.2 3.2 0.00 0.00 0.00 85 1015.2
20260904141439 27 200 3.2 3.2 0.00 0.00 0.00 88 1015.2
20260904134436 27 289 0.0 0.0 0.00 0.00 0.00 90 1015.0
20260904131435 26 154 0.0 0.0 0.00 0.00 0.00 93 1014.7
20260904124434 25 193 3.2 4.8 0.00 0.00 0.00 95 1014.6
20260904121433 24 10 0.0 0.0 0.00 0.00 0.00 95 1014.4
20260904114433 24 294 0.0 0.0 0.00 0.00 0.00 95 1014.4
20260904111432 25 310 0.0 0.0 0.00 0.00 0.00 94 1014.2
20260904104430 25 327 0.0 0.0 0.00 0.00 0.00 92 1014.1
20260904101429 25 338 0.0 0.0 0.00 0.00 0.00 91 1013.8
20260904094428 25 176 0.0 0.0 0.00 0.00 0.00 90 1013.6
20260904091426 25 152 3.2 3.2 0.00 0.00 0.00 89 1013.8
20260904084421 25 222 1.6 1.6 0.00 0.00 0.00 88 1013.6
20260904081421 26 289 0.0 0.0 0.00 0.00 0.00 87 1013.8
20260904074421 26 183 0.0 0.0 0.00 0.00 0.00 86 1013.5
20260904071417 26 174 3.2 4.8 0.00 0.00 0.00 85 1013.6
20260904064414 26 205 0.0 1.6 0.00 0.00 0.00 84 1013.9